This is the latest recevied weather packets stored in our database for station/object N3LF. If no packets are shown the sender has not sent any weather packets the latest 10 day(s).
| Time | Temp. | Humidity | Pressure | Rain* | Wind** | Luminosity | Snow |
|---|---|---|---|---|---|---|---|
| 1788361689 | 32.78° C | 67% | 1022.5 hPa | 0 mm | - | 470 W/m² | - |
| 1788361386 | 32.78° C | 66% | 1022.3 hPa | 0 mm | - | 457 W/m² | - |
| 1788361085 | 32.22° C | 68% | 1022.4 hPa | 0 mm | - | 445 W/m² | - |
| 1788360780 | 32.22° C | 70% | 1022.3 hPa | 0 mm | - | 434 W/m² | - |
| 1788360475 | 32.22° C | 69% | 1022.2 hPa | 0 mm | - | 420 W/m² | - |
| 1788360171 | 32.22° C | 70% | 1022.4 hPa | 0 mm | - | 407 W/m² | - |
| 1788359866 | 32.78° C | 71% | 1022.3 hPa | 0 mm | - | 395 W/m² | - |
| 1788359561 | 31.67° C | 72% | 1022.2 hPa | 0 mm | - | 383 W/m² | - |
| 1788359257 | 31.67° C | 75% | 1022.2 hPa | 0 mm | - | 371 W/m² | - |
| 1788358953 | 31.11° C | 76% | 1022.3 hPa | 0 mm | - | 358 W/m² | - |
| 1788358652 | 30.56° C | 78% | 1022.4 hPa | 0 mm | - | 345 W/m² | - |
| 1788358348 | 30° C | 79% | 1022.1 hPa | 0 mm | - | 332 W/m² | - |
| 1788358043 | 30° C | 81% | 1022.1 hPa | 0 mm | - | 319 W/m² | - |
| 1788357738 | 29.44° C | 83% | 1022.3 hPa | 0 mm | - | 304 W/m² | - |
| 1788357437 | 28.33° C | 84% | 1022.2 hPa | 0 mm | - | 301 W/m² | - |
| 1788357133 | 28.89° C | 85% | 1022.3 hPa | 0 mm | - | 289 W/m² | - |
| 1788356833 | 28.33° C | 86% | 1022.2 hPa | 0 mm | - | 276 W/m² | - |
| 1788356528 | 28.33° C | 86% | 1022.2 hPa | 0 mm | - | 263 W/m² | - |
| 1788356223 | 27.78° C | 88% | 1022.1 hPa | 0 mm | - | 249 W/m² | - |
| 1788355922 | 26.67° C | 91% | 1022.2 hPa | 0 mm | - | 234 W/m² | - |
| 1788355618 | 26.11° C | 92% | 1022.1 hPa | 0 mm | - | 216 W/m² | - |
| 1788355313 | 25.56° C | 95% | 1022.4 hPa | 0 mm | - | 194 W/m² | - |
| 1788355009 | 25° C | 98% | 1022.1 hPa | 0 mm | - | 176 W/m² | - |
| 1788354705 | 24.44° C | 99% | 1022.2 hPa | 0 mm | - | 158 W/m² | - |
| 1788354400 | 24.44° C | 99% | 1022.2 hPa | 0 mm | - | 142 W/m² | - |
* Rain latest hour (hover to see other rain measurements)
** Current wind speed in m/s (hover to see current wind gust speed)